RCH3512 ENOL-ENOL

Flight info

Callsign RCH3512
Flight time 1h 32m
Altitude 14000
Route IKEZE DCT ERKOR DCT DENUG DCT APSEP DCT GIPOD DCT AMEPA DCT ROLIT/N0150A020 STAY1/0015 DCT PIGIT/N0190A050 DCT VAKOL STAY2/0010
Aircraft C130/M-SDE2E3FGRY/H

Departure

Time 2026-04-26 22:00
Airport Ørland Airport (ENOL)

Arrival

Time 2026-04-26 23:32
Airport Ørland Airport (ENOL)
Time Latitude Longitude Altitude Speed Heading
2026-04-26 21:23 63.69699 9.61607 33 ft 0 kts 97°
2026-04-26 21:44 63.69699 9.61609 33 ft 0 kts 94°
2026-04-26 21:45 63.69701 9.61612 33 ft 0 kts 69°
2026-04-26 21:45 63.69705 9.61612 33 ft 1 kts 24°
2026-04-26 21:45 63.69711 9.61596 33 ft 2 kts 304°
2026-04-26 21:45 63.69709 9.61569 33 ft 1 kts 261°
2026-04-26 21:46 63.69708 9.61562 33 ft 0 kts 261°
2026-04-26 21:46 63.69708 9.61561 33 ft 1 kts 261°
2026-04-26 21:46 63.69702 9.61520 34 ft 4 kts 245°
2026-04-26 21:46 63.69674 9.61449 32 ft 6 kts 224°
2026-04-26 21:47 63.69657 9.61379 31 ft 4 kts 262°
2026-04-26 21:47 63.69655 9.61341 31 ft 0 kts 263°
2026-04-26 21:47 63.69652 9.61314 31 ft 5 kts 253°
2026-04-26 21:47 63.69628 9.61269 31 ft 6 kts 201°
2026-04-26 21:48 63.69600 9.61256 32 ft 3 kts 191°
2026-04-26 21:48 63.69580 9.61257 32 ft 4 kts 173°
2026-04-26 21:48 63.69546 9.61278 32 ft 4 kts 159°
2026-04-26 21:48 63.69521 9.61302 32 ft 4 kts 157°
2026-04-26 21:49 63.69497 9.61324 32 ft 3 kts 157°
2026-04-26 21:49 63.69476 9.61344 32 ft 3 kts 155°
2026-04-26 21:49 63.69456 9.61366 33 ft 4 kts 154°
2026-04-26 21:49 63.69426 9.61398 33 ft 5 kts 154°
2026-04-26 21:50 63.69389 9.61439 33 ft 6 kts 153°
2026-04-26 21:50 63.69348 9.61485 33 ft 7 kts 153°
2026-04-26 21:50 63.69304 9.61534 34 ft 7 kts 154°
2026-04-26 21:50 63.69259 9.61586 34 ft 7 kts 153°
2026-04-26 21:51 63.69212 9.61639 35 ft 8 kts 153°
2026-04-26 21:51 63.69168 9.61689 35 ft 6 kts 154°
2026-04-26 21:51 63.69137 9.61723 35 ft 4 kts 154°
2026-04-26 21:51 63.69117 9.61745 36 ft 2 kts 154°
2026-04-26 21:52 63.69106 9.61758 34 ft 1 kts 154°
2026-04-26 21:52 63.69094 9.61771 36 ft 3 kts 154°
2026-04-26 21:52 63.69074 9.61794 36 ft 4 kts 154°
2026-04-26 21:52 63.69042 9.61828 36 ft 6 kts 154°
2026-04-26 21:53 63.69005 9.61870 36 ft 6 kts 154°
2026-04-26 21:53 63.68966 9.61912 37 ft 6 kts 154°
2026-04-26 21:53 63.68927 9.61953 37 ft 6 kts 156°
2026-04-26 21:53 63.68888 9.61980 37 ft 6 kts 165°
2026-04-26 21:54 63.68847 9.61994 37 ft 6 kts 175°
2026-04-26 21:54 63.68806 9.61994 37 ft 6 kts 183°
2026-04-26 21:54 63.68767 9.61976 37 ft 6 kts 202°
2026-04-26 21:54 63.68737 9.61920 36 ft 6 kts 230°
2026-04-26 21:55 63.68719 9.61842 37 ft 6 kts 247°
2026-04-26 21:55 63.68707 9.61761 37 ft 5 kts 264°
2026-04-26 21:55 63.68721 9.61689 36 ft 5 kts 309°
2026-04-26 21:55 63.68745 9.61659 37 ft 0 kts 333°
2026-04-26 21:59 63.68804 9.61598 37 ft 45 kts 335°
2026-04-26 22:00 63.69409 9.60929 94 ft 138 kts 333°
2026-04-26 22:00 63.70425 9.59882 406 ft 176 kts 336°
2026-04-26 22:00 63.71586 9.58867 770 ft 179 kts 340°
2026-04-26 22:00 63.72777 9.57993 1089 ft 181 kts 343°
2026-04-26 22:01 63.74021 9.57236 1480 ft 189 kts 345°
2026-04-26 22:01 63.75313 9.56568 1982 ft 194 kts 348°
2026-04-26 22:01 63.76676 9.56065 2359 ft 201 kts 352°
2026-04-26 22:01 63.78052 9.55803 2830 ft 201 kts 357°
2026-04-26 22:02 63.79542 9.55713 2223 ft 218 kts 358°
2026-04-26 22:02 63.80980 9.55654 2254 ft 203 kts 359°
2026-04-26 22:02 63.82383 9.55615 2314 ft 201 kts 359°
2026-04-26 22:02 63.83772 9.55593 2479 ft 200 kts 359°
2026-04-26 22:03 63.85159 9.55515 2798 ft 207 kts 350°
2026-04-26 22:03 63.86425 9.53996 3135 ft 206 kts 319°
2026-04-26 22:03 63.87565 9.51985 3482 ft 208 kts 324°
2026-04-26 22:03 63.88759 9.50123 3836 ft 209 kts 325°
2026-04-26 22:04 63.89961 9.48243 4199 ft 210 kts 324°
2026-04-26 22:04 63.91157 9.46325 4568 ft 211 kts 324°
2026-04-26 22:04 63.92351 9.44371 4924 ft 212 kts 323°
2026-04-26 22:04 63.93541 9.42396 5284 ft 214 kts 323°
2026-04-26 22:05 63.94731 9.40402 5648 ft 217 kts 323°
2026-04-26 22:05 63.95956 9.38334 6041 ft 221 kts 323°
2026-04-26 22:05 63.97197 9.36232 6439 ft 223 kts 323°
2026-04-26 22:05 63.98441 9.34117 6839 ft 224 kts 323°
2026-04-26 22:06 63.99694 9.31980 7242 ft 225 kts 323°
2026-04-26 22:06 64.00923 9.29734 7649 ft 231 kts 315°
2026-04-26 22:06 64.01917 9.26838 8075 ft 233 kts 301°
2026-04-26 22:06 64.02711 9.23588 8509 ft 235 kts 298°
2026-04-26 22:07 64.03471 9.20294 8948 ft 237 kts 297°
2026-04-26 22:07 64.04241 9.16950 9398 ft 238 kts 297°
2026-04-26 22:07 64.05014 9.13597 9841 ft 240 kts 297°
2026-04-26 22:07 64.05795 9.10209 10284 ft 242 kts 297°
2026-04-26 22:08 64.06579 9.06802 10746 ft 243 kts 297°
2026-04-26 22:08 64.07368 9.03373 11198 ft 247 kts 297°
2026-04-26 22:08 64.08189 8.99799 11695 ft 259 kts 297°
2026-04-26 22:08 64.09019 8.96181 12218 ft 261 kts 297°
2026-04-26 22:09 64.09873 8.92452 12738 ft 263 kts 297°
2026-04-26 22:09 64.10703 8.88820 13258 ft 260 kts 297°
2026-04-26 22:09 64.11539 8.85162 13761 ft 261 kts 297°
2026-04-26 22:09 64.12373 8.81503 14222 ft 266 kts 297°
2026-04-26 22:10 64.13200 8.77868 14324 ft 265 kts 297°
2026-04-26 22:10 64.14086 8.73970 14345 ft 271 kts 297°
2026-04-26 22:10 64.14945 8.70183 14342 ft 271 kts 297°
2026-04-26 22:10 64.15812 8.66352 14337 ft 271 kts 297°
2026-04-26 22:11 64.16677 8.62520 14337 ft 271 kts 297°
2026-04-26 22:11 64.17544 8.58676 14336 ft 271 kts 297°
2026-04-26 22:11 64.18407 8.54840 14338 ft 271 kts 297°
2026-04-26 22:11 64.19272 8.50989 14335 ft 271 kts 297°
2026-04-26 22:12 64.20135 8.47144 14336 ft 271 kts 297°
2026-04-26 22:12 64.20994 8.43305 14336 ft 271 kts 297°
2026-04-26 22:12 64.21853 8.39458 14340 ft 271 kts 297°
2026-04-26 22:12 64.22708 8.35625 14337 ft 271 kts 297°
2026-04-26 22:13 64.23558 8.31807 14336 ft 271 kts 297°
2026-04-26 22:13 64.24356 8.28215 14338 ft 271 kts 297°
2026-04-26 22:13 64.25211 8.24358 14335 ft 271 kts 297°
2026-04-26 22:13 64.26064 8.20508 14334 ft 271 kts 297°
2026-04-26 22:14 64.26917 8.16643 14337 ft 271 kts 297°
2026-04-26 22:14 64.27770 8.12777 14338 ft 271 kts 297°
2026-04-26 22:14 64.28621 8.08911 14337 ft 271 kts 297°
2026-04-26 22:14 64.29472 8.05039 14336 ft 271 kts 297°
2026-04-26 22:15 64.30321 8.01169 14338 ft 271 kts 296°
2026-04-26 22:15 64.31170 7.97290 14340 ft 271 kts 296°
2026-04-26 22:15 64.32016 7.93421 14334 ft 271 kts 296°
2026-04-26 22:15 64.32864 7.89532 14336 ft 271 kts 296°
2026-04-26 22:16 64.33710 7.85646 14341 ft 271 kts 296°
2026-04-26 22:16 64.34554 7.81762 14336 ft 271 kts 296°
2026-04-26 22:16 64.35417 7.77903 14339 ft 271 kts 299°
2026-04-26 22:16 64.36389 7.74186 14336 ft 271 kts 302°
2026-04-26 22:17 64.37399 7.70506 14337 ft 271 kts 302°
2026-04-26 22:17 64.38417 7.66840 14338 ft 271 kts 302°
2026-04-26 22:17 64.39436 7.63190 14337 ft 271 kts 303°
2026-04-26 22:17 64.40424 7.59655 14339 ft 271 kts 303°
2026-04-26 22:18 64.41475 7.55896 14336 ft 271 kts 303°
2026-04-26 22:18 64.42505 7.52211 14339 ft 271 kts 303°
2026-04-26 22:18 64.43528 7.48547 14338 ft 271 kts 303°
2026-04-26 22:18 64.44518 7.44995 14339 ft 271 kts 302°
2026-04-26 22:19 64.45553 7.41276 14340 ft 271 kts 302°
2026-04-26 22:19 64.46575 7.37601 14338 ft 271 kts 302°
2026-04-26 22:19 64.47595 7.33923 14334 ft 271 kts 302°
2026-04-26 22:19 64.48614 7.30244 14338 ft 271 kts 302°
2026-04-26 22:20 64.49632 7.26558 14339 ft 271 kts 302°
2026-04-26 22:20 64.50302 7.24133 14338 ft 271 kts 302°
2026-04-26 22:20 64.51646 7.19255 14338 ft 271 kts 302°
2026-04-26 22:20 64.52676 7.15510 14338 ft 271 kts 302°
2026-04-26 22:21 64.53674 7.11874 14335 ft 271 kts 302°
2026-04-26 22:21 64.54687 7.08175 14339 ft 271 kts 302°
2026-04-26 22:21 64.55695 7.04478 14339 ft 271 kts 301°
2026-04-26 22:21 64.56373 7.00427 14335 ft 271 kts 279°
2026-04-26 22:22 64.56348 6.96063 14340 ft 271 kts 261°
2026-04-26 22:22 64.55970 6.91799 14342 ft 271 kts 257°
2026-04-26 22:22 64.55537 6.87519 14341 ft 271 kts 257°
2026-04-26 22:22 64.55091 6.83278 14341 ft 271 kts 256°
2026-04-26 22:23 64.54633 6.79039 14339 ft 271 kts 256°
2026-04-26 22:23 64.54168 6.74805 14337 ft 271 kts 256°
2026-04-26 22:23 64.53698 6.70563 14339 ft 271 kts 256°
2026-04-26 22:23 64.53227 6.66348 14337 ft 271 kts 256°
2026-04-26 22:24 64.52750 6.62106 14336 ft 271 kts 255°
2026-04-26 22:24 64.52273 6.57880 14338 ft 271 kts 255°
2026-04-26 22:24 64.51795 6.53657 14340 ft 271 kts 255°
2026-04-26 22:24 64.51315 6.49434 14333 ft 271 kts 255°
2026-04-26 22:25 64.50833 6.45208 14338 ft 271 kts 255°
2026-04-26 22:25 64.50349 6.40980 14334 ft 271 kts 255°
2026-04-26 22:25 64.49865 6.36760 14336 ft 271 kts 255°
2026-04-26 22:25 64.49379 6.32544 14337 ft 271 kts 255°
2026-04-26 22:26 64.48891 6.28318 14338 ft 271 kts 255°
2026-04-26 22:26 64.48404 6.24113 14337 ft 271 kts 255°
2026-04-26 22:26 64.47914 6.19901 14338 ft 271 kts 255°
2026-04-26 22:26 64.47427 6.15719 14336 ft 271 kts 255°
2026-04-26 22:27 64.46935 6.11511 14334 ft 271 kts 255°
2026-04-26 22:27 64.46608 6.08720 14341 ft 271 kts 255°
2026-04-26 22:27 64.46115 6.04522 14336 ft 271 kts 255°
2026-04-26 22:27 64.45618 6.00305 14337 ft 271 kts 255°
2026-04-26 22:28 64.45123 5.96116 14335 ft 271 kts 255°
2026-04-26 22:28 64.44624 5.91904 14339 ft 271 kts 255°
2026-04-26 22:28 64.44123 5.87690 14338 ft 271 kts 255°
2026-04-26 22:28 64.43622 5.83487 14334 ft 271 kts 255°
2026-04-26 22:29 64.43120 5.79287 14335 ft 271 kts 255°
2026-04-26 22:29 64.42617 5.75092 14333 ft 271 kts 255°
2026-04-26 22:29 64.42114 5.70908 14334 ft 271 kts 255°
2026-04-26 22:29 64.41607 5.66707 14335 ft 271 kts 255°
2026-04-26 22:30 64.41097 5.62513 14335 ft 271 kts 252°
2026-04-26 22:30 64.40187 5.58749 14336 ft 271 kts 227°
2026-04-26 22:30 64.38633 5.56359 14338 ft 272 kts 199°
2026-04-26 22:30 64.36764 5.55996 14336 ft 273 kts 169°
2026-04-26 22:31 64.35076 5.57926 14339 ft 274 kts 137°
2026-04-26 22:31 64.34023 5.61553 14340 ft 275 kts 114°
2026-04-26 22:31 64.33318 5.65642 14339 ft 275 kts 110°
2026-04-26 22:31 64.32660 5.69774 14336 ft 274 kts 110°
2026-04-26 22:32 64.32013 5.73911 14338 ft 274 kts 110°
2026-04-26 22:32 64.31371 5.78053 14337 ft 274 kts 110°
2026-04-26 22:32 64.30745 5.82120 14339 ft 274 kts 110°
2026-04-26 22:32 64.30110 5.86241 14341 ft 275 kts 110°
2026-04-26 22:33 64.29471 5.90390 14335 ft 275 kts 110°
2026-04-26 22:33 64.28185 5.98721 14337 ft 274 kts 110°
2026-04-26 22:33 64.27553 6.02808 14337 ft 274 kts 110°
2026-04-26 22:34 64.26915 6.06917 14341 ft 274 kts 110°
2026-04-26 22:34 64.26272 6.11054 14335 ft 274 kts 110°
2026-04-26 22:34 64.25629 6.15178 14337 ft 274 kts 110°
2026-04-26 22:34 64.24982 6.19319 14339 ft 275 kts 110°
2026-04-26 22:35 64.24335 6.23448 14339 ft 274 kts 110°
2026-04-26 22:35 64.23700 6.27496 14327 ft 256 kts 110°
2026-04-26 22:35 64.23106 6.31268 14338 ft 249 kts 110°
2026-04-26 22:35 64.22513 6.35020 14130 ft 249 kts 110°
2026-04-26 22:36 64.21922 6.38760 13818 ft 247 kts 110°
2026-04-26 22:36 64.21335 6.42460 13534 ft 246 kts 110°
2026-04-26 22:36 64.20749 6.46147 13239 ft 245 kts 110°
2026-04-26 22:36 64.20169 6.49793 12935 ft 244 kts 110°
2026-04-26 22:37 64.19588 6.53436 12642 ft 243 kts 110°
2026-04-26 22:37 64.19010 6.57055 12348 ft 242 kts 110°
2026-04-26 22:37 64.18430 6.60675 12054 ft 241 kts 110°
2026-04-26 22:37 64.17855 6.64263 11765 ft 239 kts 110°
2026-04-26 22:38 64.17289 6.67785 11488 ft 238 kts 110°
2026-04-26 22:38 64.16715 6.71344 11183 ft 237 kts 110°
2026-04-26 22:38 64.16145 6.74879 10903 ft 236 kts 110°
2026-04-26 22:38 64.15582 6.78361 10620 ft 235 kts 110°
2026-04-26 22:39 64.15008 6.81901 10333 ft 234 kts 110°
2026-04-26 22:39 64.14440 6.85395 10049 ft 233 kts 110°
2026-04-26 22:39 64.13876 6.88867 9766 ft 232 kts 110°
2026-04-26 22:39 64.13321 6.92270 9492 ft 231 kts 111°
2026-04-26 22:40 64.12751 6.95757 9209 ft 230 kts 111°
2026-04-26 22:40 64.12198 6.99138 8935 ft 229 kts 111°
2026-04-26 22:40 64.11639 7.02548 8658 ft 228 kts 111°
2026-04-26 22:40 64.11082 7.05940 8382 ft 227 kts 111°
2026-04-26 22:41 64.10526 7.09319 8104 ft 226 kts 111°
2026-04-26 22:41 64.09985 7.12599 7825 ft 217 kts 111°
2026-04-26 22:41 64.09468 7.15726 7512 ft 206 kts 111°
2026-04-26 22:41 64.08968 7.18745 7198 ft 201 kts 111°
2026-04-26 22:42 64.08484 7.21740 6872 ft 200 kts 107°
2026-04-26 22:42 64.08269 7.24843 6543 ft 199 kts 90°
2026-04-26 22:42 64.08361 7.28001 6216 ft 198 kts 83°
2026-04-26 22:42 64.08540 7.31112 5903 ft 197 kts 82°
2026-04-26 22:43 64.08736 7.34209 5581 ft 196 kts 82°
2026-04-26 22:43 64.08933 7.37291 5270 ft 195 kts 82°
2026-04-26 22:43 64.09127 7.40350 4950 ft 193 kts 82°
2026-04-26 22:43 64.09315 7.43331 4624 ft 186 kts 82°
2026-04-26 22:44 64.09496 7.46230 4291 ft 182 kts 82°
2026-04-26 22:44 64.09674 7.49085 3947 ft 181 kts 82°
2026-04-26 22:44 64.09850 7.51927 3608 ft 180 kts 82°
2026-04-26 22:44 64.10025 7.54754 3269 ft 179 kts 82°
2026-04-26 22:45 64.10198 7.57570 2936 ft 178 kts 82°
2026-04-26 22:45 64.10369 7.60366 2603 ft 177 kts 82°
2026-04-26 22:45 64.10539 7.63152 2272 ft 176 kts 82°
2026-04-26 22:45 64.10708 7.65914 2049 ft 176 kts 82°
2026-04-26 22:46 64.10876 7.68687 2004 ft 176 kts 82°
2026-04-26 22:46 64.11030 7.71476 2001 ft 176 kts 88°
2026-04-26 22:46 64.10768 7.74158 2003 ft 176 kts 124°
2026-04-26 22:46 64.09794 7.75719 2003 ft 175 kts 171°
2026-04-26 22:47 64.08638 7.75314 2007 ft 174 kts 204°
2026-04-26 22:47 64.07564 7.73984 2007 ft 173 kts 212°
2026-04-26 22:47 64.06551 7.72496 2008 ft 173 kts 214°
2026-04-26 22:47 64.05540 7.70995 2006 ft 173 kts 213°
2026-04-26 22:48 64.04524 7.69519 2005 ft 173 kts 211°
2026-04-26 22:48 64.03368 7.68978 2002 ft 175 kts 167°
2026-04-26 22:48 64.02423 7.70595 2004 ft 176 kts 117°
2026-04-26 22:48 64.02209 7.73316 2010 ft 176 kts 88°
2026-04-26 22:49 64.02386 7.76076 2006 ft 176 kts 69°
2026-04-26 22:49 64.03136 7.78191 2001 ft 175 kts 28°
2026-04-26 22:49 64.04293 7.79008 2008 ft 175 kts
2026-04-26 22:49 64.05503 7.79309 2006 ft 174 kts 359°
2026-04-26 22:50 64.06698 7.78963 2005 ft 174 kts 345°
2026-04-26 22:50 64.07849 7.78123 2006 ft 174 kts 338°
2026-04-26 22:50 64.08961 7.77030 2006 ft 174 kts 335°
2026-04-26 22:50 64.10054 7.75873 2006 ft 173 kts 334°
2026-04-26 22:51 64.11146 7.74701 2005 ft 173 kts 334°
2026-04-26 22:51 64.12241 7.73523 2006 ft 173 kts 334°
2026-04-26 22:51 64.13315 7.72296 2006 ft 173 kts 329°
2026-04-26 22:51 64.14315 7.70830 2007 ft 173 kts 325°
2026-04-26 22:52 64.15305 7.69257 2005 ft 173 kts 324°
2026-04-26 22:52 64.16292 7.67663 2004 ft 173 kts 324°
2026-04-26 22:52 64.17280 7.66098 2006 ft 173 kts 328°
2026-04-26 22:52 64.18409 7.65160 2005 ft 174 kts 353°
2026-04-26 22:53 64.19601 7.65473 2005 ft 175 kts 21°
2026-04-26 22:53 64.20546 7.67170 2006 ft 176 kts 52°
2026-04-26 22:53 64.21136 7.69622 2007 ft 176 kts 72°
2026-04-26 22:53 64.21321 7.72382 2004 ft 176 kts 95°
2026-04-26 22:54 64.20955 7.75051 2005 ft 176 kts 120°
2026-04-26 22:54 64.20225 7.77294 2007 ft 176 kts 133°
2026-04-26 22:54 64.19277 7.79029 2004 ft 175 kts 153°
2026-04-26 22:54 64.18132 7.79973 2006 ft 175 kts 166°
2026-04-26 22:55 64.16948 7.80599 2007 ft 175 kts 168°
2026-04-26 22:55 64.15757 7.81128 2003 ft 175 kts 172°
2026-04-26 22:55 64.14551 7.81373 2007 ft 174 kts 179°
2026-04-26 22:55 64.13337 7.81263 2007 ft 174 kts 188°
2026-04-26 22:56 64.12174 7.80559 2006 ft 174 kts 204°
2026-04-26 22:56 64.11124 7.79217 2006 ft 173 kts 214°
2026-04-26 22:56 64.10136 7.77625 1981 ft 174 kts 216°
2026-04-26 22:56 64.09157 7.76037 2126 ft 176 kts 215°
2026-04-26 22:57 64.08097 7.74387 2513 ft 188 kts 214°
2026-04-26 22:57 64.06992 7.72745 2922 ft 190 kts 213°
2026-04-26 22:57 64.05869 7.71135 3347 ft 192 kts 212°
2026-04-26 22:57 64.04726 7.69536 3764 ft 193 kts 212°
2026-04-26 22:58 64.03579 7.67962 4173 ft 194 kts 211°
2026-04-26 22:58 64.02416 7.66385 4596 ft 195 kts 211°
2026-04-26 22:58 64.01244 7.64809 4939 ft 199 kts 211°
2026-04-26 22:58 64.00075 7.63247 5009 ft 198 kts 211°
2026-04-26 22:59 63.98881 7.61656 5021 ft 202 kts 211°
2026-04-26 22:59 63.97648 7.60022 5015 ft 203 kts 211°
2026-04-26 22:59 63.96429 7.58409 5014 ft 203 kts 211°
2026-04-26 22:59 63.95224 7.56819 5014 ft 203 kts 211°
2026-04-26 23:00 63.94007 7.55214 5013 ft 203 kts 211°
2026-04-26 23:00 63.92782 7.53602 5012 ft 203 kts 211°
2026-04-26 23:00 63.91564 7.52001 5014 ft 203 kts 211°
2026-04-26 23:00 63.90344 7.50399 5014 ft 203 kts 211°
2026-04-26 23:01 63.89123 7.48797 5011 ft 203 kts 211°
2026-04-26 23:01 63.87901 7.47195 5012 ft 203 kts 211°
2026-04-26 23:01 63.86663 7.45686 5012 ft 203 kts 201°
2026-04-26 23:01 63.85276 7.45431 5011 ft 204 kts 166°
2026-04-26 23:02 63.84114 7.47190 5012 ft 205 kts 126°
2026-04-26 23:02 63.83491 7.50084 5020 ft 206 kts 110°
2026-04-26 23:02 63.83045 7.53163 5017 ft 206 kts 107°
2026-04-26 23:02 63.82623 7.56257 5011 ft 206 kts 107°
2026-04-26 23:03 63.82195 7.59345 5015 ft 206 kts 108°
2026-04-26 23:03 63.81759 7.62433 5014 ft 206 kts 108°
2026-04-26 23:03 63.81317 7.65516 5015 ft 206 kts 108°
2026-04-26 23:03 63.80872 7.68589 5015 ft 206 kts 108°
2026-04-26 23:04 63.80424 7.71658 5015 ft 206 kts 108°
2026-04-26 23:04 63.79975 7.74718 5012 ft 206 kts 109°
2026-04-26 23:04 63.79525 7.77775 5013 ft 206 kts 109°
2026-04-26 23:04 63.79070 7.80847 5013 ft 206 kts 109°
2026-04-26 23:05 63.78616 7.83910 5014 ft 205 kts 109°
2026-04-26 23:05 63.78166 7.86938 5014 ft 206 kts 109°
2026-04-26 23:05 63.77706 7.90018 5014 ft 206 kts 109°
2026-04-26 23:05 63.77249 7.93081 5013 ft 206 kts 109°
2026-04-26 23:06 63.76805 7.96047 5008 ft 196 kts 109°
2026-04-26 23:06 63.76375 7.98910 4916 ft 196 kts 109°
2026-04-26 23:06 63.75942 8.01786 4591 ft 193 kts 109°
2026-04-26 23:06 63.75509 8.04656 4288 ft 192 kts 109°
2026-04-26 23:07 63.75068 8.07447 4058 ft 191 kts 111°
2026-04-26 23:07 63.74721 8.09363 4022 ft 192 kts 113°
2026-04-26 23:07 63.74023 8.13026 4004 ft 192 kts 114°
2026-04-26 23:07 63.73503 8.15753 4011 ft 192 kts 113°
2026-04-26 23:08 63.72979 8.18520 4017 ft 192 kts 113°
2026-04-26 23:08 63.72458 8.21287 4017 ft 192 kts 113°
2026-04-26 23:08 63.71937 8.24062 4009 ft 192 kts 113°
2026-04-26 23:08 63.71417 8.26838 4010 ft 192 kts 113°
2026-04-26 23:09 63.70898 8.29609 4010 ft 192 kts 113°
2026-04-26 23:09 63.70379 8.32387 4003 ft 192 kts 113°
2026-04-26 23:09 63.69901 8.34943 4018 ft 192 kts 113°
2026-04-26 23:09 63.69382 8.37713 4016 ft 192 kts 113°
2026-04-26 23:10 63.68862 8.40488 4014 ft 192 kts 113°
2026-04-26 23:10 63.68342 8.43259 4004 ft 192 kts 113°
2026-04-26 23:10 63.67822 8.46022 4010 ft 192 kts 113°
2026-04-26 23:10 63.67302 8.48787 4005 ft 192 kts 113°
2026-04-26 23:11 63.66781 8.51555 4016 ft 192 kts 113°
2026-04-26 23:11 63.66259 8.54321 4018 ft 192 kts 113°
2026-04-26 23:11 63.65737 8.57083 4016 ft 192 kts 113°
2026-04-26 23:11 63.65213 8.59847 4003 ft 192 kts 113°
2026-04-26 23:12 63.64690 8.62608 4007 ft 192 kts 113°
2026-04-26 23:12 63.64166 8.65367 4001 ft 192 kts 113°
2026-04-26 23:12 63.63640 8.68132 4017 ft 192 kts 113°
2026-04-26 23:12 63.63118 8.70876 4017 ft 192 kts 113°
2026-04-26 23:13 63.62610 8.73540 3999 ft 182 kts 114°
2026-04-26 23:13 63.62112 8.76143 4020 ft 181 kts 114°
2026-04-26 23:13 63.61613 8.78751 4024 ft 182 kts 114°
2026-04-26 23:13 63.61122 8.81309 4001 ft 173 kts 114°
2026-04-26 23:14 63.60650 8.83770 4017 ft 171 kts 114°
2026-04-26 23:14 63.60198 8.86119 4016 ft 161 kts 114°
2026-04-26 23:14 63.59753 8.88425 4004 ft 160 kts 114°
2026-04-26 23:14 63.59309 8.90729 4017 ft 160 kts 114°
2026-04-26 23:15 63.58867 8.93016 4003 ft 160 kts 114°
2026-04-26 23:15 63.58424 8.95310 4016 ft 160 kts 114°
2026-04-26 23:15 63.57981 8.97601 4002 ft 160 kts 114°
2026-04-26 23:15 63.57538 8.99892 4008 ft 160 kts 114°
2026-04-26 23:16 63.57240 9.01428 4017 ft 160 kts 114°
2026-04-26 23:16 63.56804 9.03676 4018 ft 156 kts 114°
2026-04-26 23:16 63.56382 9.05851 4008 ft 150 kts 114°
2026-04-26 23:16 63.55963 9.08001 4007 ft 150 kts 114°
2026-04-26 23:17 63.55547 9.10138 4017 ft 150 kts 114°
2026-04-26 23:17 63.55129 9.12279 4017 ft 150 kts 114°
2026-04-26 23:17 63.54711 9.14423 4017 ft 150 kts 114°
2026-04-26 23:17 63.54296 9.16546 4016 ft 150 kts 114°
2026-04-26 23:18 63.53877 9.18690 4011 ft 150 kts 114°
2026-04-26 23:18 63.53460 9.20826 4005 ft 150 kts 114°
2026-04-26 23:18 63.53041 9.22963 4017 ft 150 kts 114°
2026-04-26 23:18 63.52621 9.25106 4017 ft 150 kts 114°
2026-04-26 23:19 63.52216 9.27172 4016 ft 150 kts 114°
2026-04-26 23:19 63.51784 9.29371 4017 ft 150 kts 114°
2026-04-26 23:19 63.51364 9.31508 4017 ft 150 kts 114°
2026-04-26 23:19 63.50944 9.33649 4001 ft 150 kts 114°
2026-04-26 23:20 63.50521 9.35796 4017 ft 151 kts 114°
2026-04-26 23:20 63.50099 9.37933 4001 ft 150 kts 114°
2026-04-26 23:20 63.49678 9.40070 4002 ft 150 kts 114°
2026-04-26 23:20 63.49261 9.42179 4018 ft 150 kts 114°
2026-04-26 23:21 63.48835 9.44335 4016 ft 150 kts 114°
2026-04-26 23:21 63.48421 9.46424 4016 ft 150 kts 114°
2026-04-26 23:21 63.47998 9.48557 4007 ft 150 kts 114°
2026-04-26 23:21 63.47576 9.50680 3999 ft 150 kts 114°
2026-04-26 23:22 63.47152 9.52816 4016 ft 150 kts 114°
2026-04-26 23:22 63.46729 9.54938 4017 ft 150 kts 114°
2026-04-26 23:22 63.46305 9.57066 4006 ft 150 kts 114°
2026-04-26 23:22 63.45879 9.59201 4016 ft 150 kts 114°
2026-04-26 23:23 63.45454 9.61335 4002 ft 151 kts 114°
2026-04-26 23:23 63.45017 9.63516 3638 ft 152 kts 114°
2026-04-26 23:23 63.44623 9.65635 3390 ft 144 kts 106°
2026-04-26 23:23 63.44657 9.67823 3168 ft 143 kts 68°
2026-04-26 23:24 63.45170 9.69704 3037 ft 142 kts 51°
2026-04-26 23:24 63.45832 9.71334 2917 ft 141 kts 45°
2026-04-26 23:24 63.46537 9.72871 2835 ft 141 kts 43°
2026-04-26 23:24 63.47241 9.74367 2779 ft 139 kts 43°
2026-04-26 23:25 63.47930 9.75841 2758 ft 137 kts 43°
2026-04-26 23:25 63.48609 9.77320 2784 ft 136 kts 44°
2026-04-26 23:25 63.49284 9.78812 2837 ft 136 kts 44°
2026-04-26 23:25 63.49956 9.80312 2892 ft 137 kts 43°
2026-04-26 23:26 63.50750 9.81379 2912 ft 132 kts 12°
2026-04-26 23:26 63.51643 9.81241 2910 ft 128 kts 344°
2026-04-26 23:26 63.52473 9.80515 2915 ft 128 kts 334°
2026-04-26 23:26 63.53125 9.79213 2899 ft 128 kts 300°
2026-04-26 23:27 63.53634 9.77592 2890 ft 128 kts 322°
2026-04-26 23:27 63.54481 9.77060 2882 ft 129 kts 356°
2026-04-26 23:27 63.55350 9.76650 2873 ft 128 kts 333°
2026-04-26 23:27 63.56110 9.75616 2885 ft 128 kts 329°
2026-04-26 23:28 63.56895 9.74663 2830 ft 128 kts 331°
2026-04-26 23:28 63.57684 9.73740 2726 ft 128 kts 332°
2026-04-26 23:28 63.58476 9.72845 2554 ft 128 kts 333°
2026-04-26 23:28 63.59269 9.71970 2385 ft 127 kts 333°
2026-04-26 23:29 63.60060 9.71110 2197 ft 127 kts 333°
2026-04-26 23:29 63.60851 9.70257 2002 ft 125 kts 334°
2026-04-26 23:29 63.61628 9.69419 1818 ft 125 kts 334°
2026-04-26 23:29 63.62420 9.68564 1631 ft 124 kts 333°
2026-04-26 23:30 63.63198 9.67720 1446 ft 124 kts 333°
2026-04-26 23:30 63.63974 9.66876 1266 ft 124 kts 333°
2026-04-26 23:30 63.64746 9.66035 1077 ft 123 kts 333°
2026-04-26 23:30 63.65511 9.65199 896 ft 122 kts 333°
2026-04-26 23:31 63.66273 9.64366 716 ft 121 kts 333°
2026-04-26 23:31 63.67024 9.63544 539 ft 120 kts 333°
2026-04-26 23:31 63.67753 9.62749 284 ft 112 kts 334°
2026-04-26 23:31 63.68446 9.62012 116 ft 111 kts 333°
2026-04-26 23:32 63.69123 9.61257 51 ft 108 kts 333°
2026-04-26 23:32 63.69786 9.60534 31 ft 89 kts 333°
2026-04-26 23:32 63.69924 9.60390 31 ft 0 kts 335°
2026-04-26 23:32 63.69924 9.60389 31 ft 0 kts 335°
2026-04-26 23:33 63.69931 9.60381 31 ft 1 kts 334°
2026-04-26 23:33 63.69936 9.60376 31 ft 1 kts 334°
2026-04-26 23:33 63.69950 9.60360 31 ft 3 kts 333°
2026-04-26 23:33 63.69966 9.60342 30 ft 3 kts 333°
2026-04-26 23:34 63.69985 9.60321 30 ft 2 kts 333°
2026-04-26 23:34 63.70001 9.60302 30 ft 4 kts 333°
2026-04-26 23:34 63.70029 9.60270 30 ft 5 kts 333°
2026-04-26 23:34 63.70064 9.60230 29 ft 6 kts 333°
2026-04-26 23:35 63.70105 9.60183 28 ft 7 kts 332°
2026-04-26 23:35 63.70150 9.60129 28 ft 8 kts 330°
2026-04-26 23:35 63.70196 9.60072 27 ft 8 kts 332°
2026-04-26 23:35 63.70232 9.60028 27 ft 5 kts 332°
2026-04-26 23:36 63.70257 9.60000 27 ft 4 kts 335°
2026-04-26 23:36 63.70280 9.59989 26 ft 3 kts 356°
2026-04-26 23:36 63.70298 9.60002 26 ft 3 kts 30°
2026-04-26 23:36 63.70310 9.60042 26 ft 3 kts 61°
2026-04-26 23:37 63.70322 9.60095 26 ft 4 kts 64°
2026-04-26 23:37 63.70335 9.60155 26 ft 5 kts 64°
2026-04-26 23:37 63.70350 9.60221 26 ft 5 kts 64°
2026-04-26 23:37 63.70354 9.60238 26 ft 2 kts 64°
2026-04-26 23:38 63.70360 9.60270 26 ft 3 kts 65°
2026-04-26 23:38 63.70369 9.60321 26 ft 4 kts 77°
2026-04-26 23:38 63.70359 9.60373 26 ft 3 kts 133°
2026-04-26 23:38 63.70338 9.60409 27 ft 4 kts 138°
2026-04-26 23:39 63.70324 9.60461 27 ft 4 kts 116°
2026-04-26 23:39 63.70312 9.60524 27 ft 5 kts 113°
2026-04-26 23:39 63.70300 9.60589 27 ft 4 kts 111°
2026-04-26 23:39 63.70294 9.60623 29 ft 0 kts 110°
2026-04-26 23:40 63.70288 9.60653 30 ft 4 kts 117°
2026-04-26 23:40 63.70249 9.60722 32 ft 10 kts 151°
2026-04-26 23:40 63.70202 9.60796 33 ft 7 kts 130°
2026-04-26 23:41 63.70183 9.60890 34 ft 6 kts 110°
2026-04-26 23:41 63.70169 9.60976 35 ft 6 kts 110°
2026-04-26 23:41 63.70158 9.61052 35 ft 5 kts 108°
2026-04-26 23:41 63.70147 9.61122 37 ft 6 kts 111°
2026-04-26 23:42 63.70142 9.61152 36 ft 3 kts 111°
2026-04-26 23:42 63.70098 9.61254 36 ft 6 kts 153°
2026-04-26 23:42 63.70049 9.61308 34 ft 9 kts 154°
2026-04-26 23:43 63.70000 9.61352 35 ft 7 kts 165°
2026-04-26 23:43 63.69947 9.61353 35 ft 8 kts 185°
2026-04-26 23:43 63.69890 9.61364 33 ft 9 kts 154°
2026-04-26 23:43 63.69874 9.61395 34 ft 0 kts 133°
2026-04-26 23:45 63.69872 9.61400 34 ft 1 kts 133°
2026-04-26 23:46 63.69864 9.61418 35 ft 2 kts 133°
2026-04-26 23:46 63.69846 9.61453 35 ft 4 kts 145°
2026-04-26 23:46 63.69821 9.61466 35 ft 6 kts 177°
2026-04-26 23:46 63.69779 9.61478 34 ft 5 kts 164°
2026-04-26 23:47 63.69756 9.61508 34 ft 2 kts 133°
2026-04-26 23:47 63.69753 9.61526 34 ft 1 kts 112°
2026-04-26 23:47 63.69751 9.61561 34 ft 2 kts 96°
2026-04-26 23:47 63.69750 9.61578 34 ft 1 kts 101°
2026-04-26 23:48 63.69749 9.61589 34 ft 1 kts 101°
2026-04-26 23:48 63.69747 9.61611 34 ft 0 kts 101°
2026-04-26 23:48 63.69747 9.61612 34 ft 0 kts 101°